TimeCDT,TemperatureF,Dew PointF,Humidity,Sea Level PressureIn,VisibilityMPH,Wind Direction,Wind SpeedMPH,Gust SpeedMPH,PrecipitationIn,Events,Conditions,WindDirDegrees,DateUTC
12:53 AM,46.9,39.9,77,29.72,10.0,NNW,9.2,-,N/A,,Overcast,330,2011-10-19 05:53:00
1:53 AM,46.9,39.0,74,29.71,10.0,NW,6.9,-,N/A,,Overcast,310,2011-10-19 06:53:00
2:53 AM,46.9,39.0,74,29.70,10.0,NW,6.9,-,N/A,,Mostly Cloudy,310,2011-10-19 07:53:00
3:53 AM,46.0,39.0,76,29.68,10.0,NW,8.1,-,N/A,,Overcast,310,2011-10-19 08:53:00
4:53 AM,46.0,37.9,73,29.68,10.0,NW,6.9,-,N/A,,Overcast,310,2011-10-19 09:53:00
5:53 AM,46.4,39.2,76,29.68,10.0,NW,8.1,-,N/A,Rain,Light Rain,310,2011-10-19 10:53:00
6:00 AM,44.6,39.2,81,29.68,10.0,NW,9.2,-,0.00,Rain,Light Rain,310,2011-10-19 11:00:00
6:53 AM,44.1,39.9,85,29.67,8.0,NW,12.7,-,0.01,Rain,Light Rain,310,2011-10-19 11:53:00
7:06 AM,44.6,39.2,81,29.67,7.0,WNW,10.4,-,0.01,Rain,Light Rain,300,2011-10-19 12:06:00
7:53 AM,45.0,39.9,82,29.67,9.0,NW,11.5,19.6,0.01,,Overcast,310,2011-10-19 12:53:00
8:53 AM,45.0,39.9,82,29.68,10.0,NW,12.7,21.9,0.00,Rain,Light Rain,310,2011-10-19 13:53:00
9:53 AM,45.0,41.0,86,29.68,8.0,NW,12.7,19.6,0.01,Rain,Light Rain,310,2011-10-19 14:53:00
10:38 AM,46.4,41.0,81,29.68,10.0,NW,8.1,21.9,0.01,Rain,Light Rain,320,2011-10-19 15:38:00
10:53 AM,46.4,41.0,81,29.68,9.0,NW,11.5,19.6,N/A,Rain,Light Rain,320,2011-10-19 15:53:00
11:53 AM,46.0,42.1,86,29.68,10.0,NW,12.7,20.7,0.02,Rain,Light Rain,310,2011-10-19 16:53:00
12:53 PM,46.9,42.1,83,29.67,10.0,NW,11.5,-,0.01,Rain,Light Rain,310,2011-10-19 17:53:00
1:53 PM,46.9,42.1,83,29.66,10.0,NW,12.7,20.7,0.01,,Overcast,310,2011-10-19 18:53:00
2:53 PM,48.0,42.1,80,29.67,10.0,NW,18.4,27.6,0.00,Rain,Light Rain,310,2011-10-19 19:53:00
3:53 PM,48.0,41.0,77,29.69,10.0,NW,12.7,23.0,0.00,Rain,Light Rain,310,2011-10-19 20:53:00
4:53 PM,48.0,41.0,77,29.71,10.0,NNW,13.8,21.9,0.00,,Overcast,330,2011-10-19 21:53:00
5:04 PM,48.2,41.0,76,29.71,10.0,NW,13.8,21.9,0.00,Rain,Light Rain,320,2011-10-19 22:04:00
5:45 PM,46.4,41.0,81,29.72,10.0,WNW,13.8,19.6,0.00,Rain,Light Rain,300,2011-10-19 22:45:00
5:53 PM,46.9,41.0,80,29.73,10.0,WNW,12.7,19.6,0.00,Rain,Light Rain,300,2011-10-19 22:53:00
6:00 PM,46.4,39.2,76,29.73,9.0,NW,16.1,25.3,0.01,Rain,Light Rain,310,2011-10-19 23:00:00
6:11 PM,46.4,39.2,76,29.74,10.0,NW,11.5,20.7,0.01,Rain,Light Rain,310,2011-10-19 23:11:00
6:53 PM,46.9,39.0,74,29.75,10.0,WNW,16.1,25.3,0.01,Rain,Light Rain,290,2011-10-19 23:53:00
7:53 PM,46.0,39.0,76,29.76,10.0,WNW,11.5,20.7,0.00,,Overcast,290,2011-10-20 00:53:00
8:53 PM,46.0,39.0,76,29.76,10.0,West,12.7,-,N/A,,Overcast,280,2011-10-20 01:53:00
9:53 PM,45.0,39.0,80,29.77,10.0,West,10.4,-,N/A,,Mostly Cloudy,280,2011-10-20 02:53:00
10:53 PM,45.0,37.9,76,29.75,10.0,West,11.5,20.7,0.00,Rain,Light Rain,280,2011-10-20 03:53:00
11:04 PM,44.6,37.4,76,29.75,10.0,West,10.4,20.7,N/A,Rain,Light Rain,280,2011-10-20 04:04:00
11:53 PM,46.0,37.0,71,29.75,10.0,WNW,13.8,20.7,0.00,,Overcast,300,2011-10-20 04:53:00